Overview Statistics Trail Chart Weather Telemetry Raw packets
 

This is the latest recevied weather packets stored in our database for station/object KN1OBI-13. If no packets are shown the sender has not sent any weather packets the latest 10 day(s).

<< 22 23 24 25 26 27 28 >>
Time Temp. Humidity Pressure Rain* Wind** Luminosity Snow
1788279992 18.89° C 95% 996.6 hPa 1.02 mm - - -
1788279392 18.89° C 95% 996.5 hPa 1.02 mm - - -
1788278792 18.89° C 95% 996.4 hPa 0 mm - - -
1788278191 18.89° C 95% 996.5 hPa 0 mm - - -
1788277592 18.89° C 95% 996.5 hPa 0 mm - - -
1788276992 18.89° C 95% 996.6 hPa 0 mm - - -
1788276392 18.89° C 95% 996.6 hPa 0 mm - - -
1788275792 18.89° C 95% 996.7 hPa 0 mm - - -
1788275191 18.89° C 95% 996.8 hPa 0 mm - - -
1788274592 18.89° C 95% 996.9 hPa 0 mm - - -
1788273992 18.89° C 95% 996.9 hPa 0 mm - - -
1788273392 18.89° C 95% 996.9 hPa 0 mm - - -
1788272791 18.89° C 95% 996.8 hPa 0 mm - - -
1788272191 18.89° C 95% 997.1 hPa 0 mm - - -
1788271592 18.89° C 95% 996.9 hPa 0 mm - - -
1788270992 18.33° C 95% 996.8 hPa 0 mm - - -
1788270392 18.33° C 95% 997.3 hPa 0 mm - - -
1788269792 18.33° C 95% 997.3 hPa 0.51 mm - - -
1788269192 18.33° C 95% 996.9 hPa 0.51 mm - - -
1788268592 18.33° C 95% 997.2 hPa 0.51 mm - - -
1788267991 17.78° C 95% 997.5 hPa 2.79 mm - - -
1788267392 17.78° C 94% 997.4 hPa 3.56 mm - - -
1788266792 17.78° C 94% 997 hPa 1.02 mm - - -
1788266191 17.78° C 94% 997.3 hPa 0.51 mm - - -
1788265614 17.78° C 94% 997 hPa 1.02 mm - - -

* Rain latest hour (hover to see other rain measurements)
** Current wind speed in m/s (hover to see current wind gust speed)